Location: Unspecified
(0.0000°N, 0.0000°E)
Time: 21:10:01
(UTC+00:00)

ISS - Pass Details

Date: 26 April 2017
Orbit: 401 x 408 km, 51.6° (Epoch: 22 October)

Event Time Altitude Azimuth Distance (km) Brightness Sun altitude
Rises 18:58:04 0° 270° (W) 2,326 1.7 -14.6°
Enters shadow 19:06:28 -4° 181° (S) 2,885 0.4 -16.7°
Exits shadow 19:39:39 -67° 111° (ESE) 12,183 3.6 -24.7°
Maximum altitude 04:59:55 31° 126° (SE) 753 -2.1 -14.1°
